DL5DI-H Weather Reports


Display with metric or nautical units.
time (UTC)temp
F
wind
direction
speed
MPH
gust
MPH
rain 1hr
in
rain 24hr
in
rain mn
in
humidity
%
barometer
mb
20260502123005 80 173 4.0 9.0 0.00 0.00 0.00 40 1018.7
20260502122002 80 176 4.0 11.0 0.00 0.00 0.00 42 1018.9
20260502121001 79 148 2.0 5.0 0.00 0.00 0.00 42 1019.0
20260502115001 78 166 4.0 9.0 0.00 0.00 0.00 43 1019.3
20260502114004 77 201 3.0 7.0 0.00 0.00 0.00 44 1019.4
20260502113004 77 139 4.0 7.0 0.00 0.00 0.00 44 1019.6
20260502112001 76 142 3.0 7.0 0.00 0.00 0.00 44 1019.7
20260502111001 75 175 4.0 7.0 0.00 0.00 0.00 45 1019.8
20260502110001 74 178 3.0 6.0 0.00 0.00 0.00 47 1019.9
20260502105004 73 171 4.0 9.0 0.00 0.00 0.00 48 1020.0
20260502104001 72 159 3.0 6.0 0.00 0.00 0.00 49 1020.1
20260502103004 71 174 4.0 8.0 0.00 0.00 0.00 50 1020.3
20260502102001 70 142 3.0 6.0 0.00 0.00 0.00 52 1020.3
20260502101001 68 129 2.0 7.0 0.00 0.00 0.00 54 1020.5
20260502091001 61 108 1.0 3.0 0.00 0.00 0.00 65 1021.4
20260502071004 52 65 1.0 2.0 0.00 0.00 0.00 72 1022.3
20260502070004 51 90 1.0 3.0 0.00 0.00 0.00 73 1022.5
20260502065004 50 45 1.0 2.0 0.00 0.00 0.00 74 1022.4
20260502064001 49 90 1.0 2.0 0.00 0.00 0.00 75 1022.3
20260502063000 49 90 1.0 2.0 0.00 0.00 0.00 75 1022.3
20260502062000 47 250 1.0 2.0 0.00 0.00 0.00 76 1022.5
20260502061004 47 210 1.0 2.0 0.00 0.00 0.00 76 1022.5
20260502060000 47 210 1.0 2.0 0.00 0.00 0.00 76 1022.5
20260502055001 45 184 2.0 3.0 0.00 0.00 0.00 77 1022.5
20260502054000 45 205 2.0 4.0 0.00 0.00 0.00 77 1022.5
20260502053004 45 205 2.0 4.0 0.00 0.00 0.00 77 1022.5
20260502052004 44 203 2.0 4.0 0.00 0.00 0.00 76 1022.4
20260502051005 44 225 1.0 3.0 0.00 0.00 0.00 76 1022.4
20260502050005 44 225 1.0 3.0 0.00 0.00 0.00 76 1022.4
20260502045001 44 214 2.0 3.0 0.00 0.00 0.00 76 1022.4
20260502044001 44 214 2.0 3.0 0.00 0.00 0.00 76 1022.4
20260502043001 44 214 2.0 3.0 0.00 0.00 0.00 76 1022.4
20260502042005 44 214 2.0 3.0 0.00 0.00 0.00 76 1022.4
20260502041000 44 214 2.0 3.0 0.00 0.00 0.00 76 1022.4
20260502040005 44 245 1.0 3.0 0.00 0.00 0.00 75 1022.5
20260502035001 44 245 1.0 3.0 0.00 0.00 0.00 75 1022.5
20260502034004 45 218 2.0 4.0 0.00 0.00 0.00 75 1022.5
20260502033005 45 227 1.0 3.0 0.00 0.00 0.00 75 1022.6
20260502032001 45 227 1.0 3.0 0.00 0.00 0.00 75 1022.6
20260502031000 45 226 2.0 4.0 0.00 0.00 0.00 74 1022.6
20260502030004 46 218 1.0 3.0 0.00 0.00 0.00 74 1022.6
20260502025005 46 218 1.0 3.0 0.00 0.00 0.00 74 1022.6
20260502024001 46 221 2.0 4.0 0.00 0.00 0.00 73 1022.6
20260502023000 46 208 2.0 4.0 0.00 0.00 0.00 73 1022.6
20260502022001 46 208 2.0 4.0 0.00 0.00 0.00 73 1022.6
20260502021004 47 225 1.0 2.0 0.00 0.00 0.00 73 1022.6
20260502020005 47 234 1.0 2.0 0.00 0.00 0.00 72 1022.6
20260502015004 47 234 1.0 2.0 0.00 0.00 0.00 72 1022.6
20260502014001 47 204 2.0 3.0 0.00 0.00 0.00 72 1022.7
20260502013001 47 221 1.0 2.0 0.00 0.00 0.00 72 1022.7
20260502012001 47 225 1.0 3.0 0.00 0.00 0.00 72 1022.8
20260502011000 48 223 2.0 3.0 0.00 0.00 0.00 72 1022.9
20260502010004 48 219 2.0 4.0 0.00 0.00 0.00 71 1022.9
20260502005000 48 221 2.0 4.0 0.00 0.00 0.00 71 1023.0
20260502004000 50 227 1.0 2.0 0.00 0.00 0.00 69 1023.5
20260502003001 50 227 1.0 2.0 0.00 0.00 0.00 69 1023.5
20260502002001 50 227 1.0 2.0 0.00 0.00 0.00 69 1023.5
20260502001001 50 227 1.0 2.0 0.00 0.00 0.00 69 1023.5
20260502000001 50 227 1.0 2.0 0.00 0.00 0.00 69 1023.5
20260501235001 50 227 1.0 2.0 0.00 0.00 0.00 69 1023.5
20260501234000 50 235 1.0 3.0 0.00 0.00 0.00 67 1023.5
20260501233001 51 207 2.0 4.0 0.00 0.00 0.00 67 1023.5
20260501232000 51 211 2.0 4.0 0.00 0.00 0.00 67 1023.6
20260501231005 51 214 1.0 4.0 0.00 0.00 0.00 66 1023.6
20260501230001 51 255 2.0 4.0 0.00 0.00 0.00 66 1023.6
20260501225001 52 220 1.0 2.0 0.00 0.00 0.00 65 1023.6
20260501224004 52 212 1.0 2.0 0.00 0.00 0.00 65 1023.7
20260501223001 53 223 2.0 4.0 0.00 0.00 0.00 64 1023.7
20260501222000 53 216 1.0 4.0 0.00 0.00 0.00 63 1023.7
20260501221004 54 207 2.0 3.0 0.00 0.00 0.00 63 1023.7
20260501220001 54 205 2.0 4.0 0.00 0.00 0.00 63 1023.7
20260501215001 54 227 1.0 3.0 0.00 0.00 0.00 62 1023.7
20260501214005 54 239 2.0 3.0 0.00 0.00 0.00 61 1023.7
20260501213006 55 236 2.0 3.0 0.00 0.00 0.00 60 1023.7
20260501212004 56 217 2.0 4.0 0.00 0.00 0.00 59 1023.7
20260501211004 56 201 1.0 4.0 0.00 0.00 0.00 58 1023.7
20260501210005 57 209 1.0 3.0 0.00 0.00 0.00 58 1023.7
20260501205000 58 225 1.0 3.0 0.00 0.00 0.00 56 1023.7
20260501204004 59 219 1.0 3.0 0.00 0.00 0.00 55 1023.7
20260501203000 60 216 1.0 3.0 0.00 0.00 0.00 54 1023.7
20260501202005 60 201 1.0 2.0 0.00 0.00 0.00 54 1023.7
20260501201005 61 211 1.0 2.0 0.00 0.00 0.00 52 1023.7
20260501200001 62 235 1.0 2.0 0.00 0.00 0.00 50 1023.6
20260501195000 63 139 1.0 2.0 0.00 0.00 0.00 50 1023.6
20260501194005 64 156 1.0 2.0 0.00 0.00 0.00 48 1023.5
20260501193001 65 225 1.0 1.0 0.00 0.00 0.00 46 1023.6
20260501192005 66 270 1.0 2.0 0.00 0.00 0.00 44 1023.5
20260501191000 68 270 1.0 2.0 0.00 0.00 0.00 40 1023.4
20260501190005 69 135 1.0 3.0 0.00 0.00 0.00 37 1023.4
20260501185001 70 113 2.0 5.0 0.00 0.00 0.00 36 1023.4
20260501184001 71 111 2.0 4.0 0.00 0.00 0.00 35 1023.4
20260501183004 72 110 2.0 4.0 0.00 0.00 0.00 34 1023.4
20260501182005 73 120 2.0 3.0 0.00 0.00 0.00 33 1023.4
20260501181004 74 108 3.0 6.0 0.00 0.00 0.00 32 1023.4
20260501180005 75 144 3.0 7.0 0.00 0.00 0.00 31 1023.3
20260501175001 75 124 3.0 7.0 0.00 0.00 0.00 31 1023.3
20260501174001 76 126 3.0 7.0 0.00 0.00 0.00 30 1023.3
20260501173001 76 114 4.0 9.0 0.00 0.00 0.00 29 1023.4
20260501172005 77 137 3.0 7.0 0.00 0.00 0.00 28 1023.7
20260501171004 77 137 3.0 7.0 0.00 0.00 0.00 28 1023.7
20260501170000 77 137 3.0 7.0 0.00 0.00 0.00 28 1023.7
20260501165001 77 137 3.0 7.0 0.00 0.00 0.00 28 1023.7
20260501164001 77 137 3.0 7.0 0.00 0.00 0.00 28 1023.7
20260501163005 77 116 5.0 11.0 0.00 0.00 0.00 28 1023.8
20260501162001 77 137 4.0 9.0 0.00 0.00 0.00 28 1023.8
20260501161005 77 123 5.0 9.0 0.00 0.00 0.00 28 1023.9
20260501160005 78 114 5.0 10.0 0.00 0.00 0.00 27 1024.0
20260501155005 78 135 5.0 8.0 0.00 0.00 0.00 27 1024.1
20260501154001 78 126 4.0 8.0 0.00 0.00 0.00 28 1024.2
20260501153000 77 126 4.0 8.0 0.00 0.00 0.00 27 1024.4
20260501152001 77 161 6.0 10.0 0.00 0.00 0.00 27 1024.5
20260501151000 77 162 5.0 8.0 0.00 0.00 0.00 27 1024.6
20260501150005 77 136 6.0 11.0 0.00 0.00 0.00 27 1024.7